GLO1800 SBBR-SBRJ

Flight info

Callsign GLO1800
Flight time N/A
Altitude 33000
Route GEPMO UZ6 TOKIM
Aircraft B73G/M-DGVW/C

Departure

Time N/A
Airport Presidente Juscelino Kubitschek International Airport (SBBR)

Arrival

Time 2026-04-29 09:08
Airport Santos Dumont Airport (SBRJ)
Time Latitude Longitude Altitude Speed Heading
2026-04-29 08:55 -22.76781 -43.74881 13549 ft 377 kts 154°
2026-04-29 08:55 -22.79121 -43.73641 13037 ft 371 kts 154°
2026-04-29 08:55 -22.81391 -43.72437 12532 ft 366 kts 154°
2026-04-29 08:55 -22.83471 -43.71334 12085 ft 361 kts 154°
2026-04-29 08:56 -22.85738 -43.70131 11593 ft 356 kts 154°
2026-04-29 08:56 -22.87955 -43.68954 11117 ft 352 kts 154°
2026-04-29 08:56 -22.90346 -43.67684 10605 ft 347 kts 154°
2026-04-29 08:56 -22.92502 -43.66539 10146 ft 344 kts 154°
2026-04-29 08:57 -22.94641 -43.65398 9667 ft 340 kts 152°
2026-04-29 08:57 -22.96495 -43.63851 9131 ft 337 kts 129°
2026-04-29 08:57 -22.97683 -43.61430 8614 ft 331 kts 104°
2026-04-29 08:57 -22.97907 -43.58982 8132 ft 325 kts 84°
2026-04-29 08:58 -22.97384 -43.56598 7667 ft 319 kts 66°
2026-04-29 08:58 -22.96513 -43.54544 7212 ft 316 kts 62°
2026-04-29 08:58 -22.95586 -43.52399 6740 ft 314 kts 69°
2026-04-29 08:58 -22.95340 -43.50063 6299 ft 314 kts 96°
2026-04-29 08:59 -22.95903 -43.47792 5862 ft 311 kts 109°
2026-04-29 08:59 -22.96688 -43.45620 5518 ft 305 kts 111°
2026-04-29 08:59 -22.97473 -43.43541 5400 ft 290 kts 111°
2026-04-29 08:59 -22.98216 -43.41574 5375 ft 274 kts 111°
2026-04-29 09:00 -22.98924 -43.39682 5389 ft 270 kts 111°
2026-04-29 09:00 -22.99630 -43.37777 5174 ft 276 kts 111°
2026-04-29 09:00 -23.00346 -43.35830 4817 ft 278 kts 110°
2026-04-29 09:00 -23.01057 -43.33884 4444 ft 276 kts 110°
2026-04-29 09:01 -23.01762 -43.31950 4076 ft 274 kts 110°
2026-04-29 09:01 -23.02457 -43.30037 3721 ft 271 kts 110°
2026-04-29 09:01 -23.03142 -43.28150 3524 ft 262 kts 110°
2026-04-29 09:01 -23.03792 -43.26359 3506 ft 252 kts 110°
2026-04-29 09:02 -23.04421 -43.24623 3516 ft 240 kts 110°
2026-04-29 09:02 -23.05009 -43.23002 3495 ft 221 kts 110°
2026-04-29 09:02 -23.05558 -43.21484 3505 ft 213 kts 110°
2026-04-29 09:02 -23.06097 -43.19993 3494 ft 212 kts 110°
2026-04-29 09:03 -23.06634 -43.18509 3505 ft 212 kts 109°
2026-04-29 09:03 -23.07171 -43.17023 3500 ft 211 kts 109°
2026-04-29 09:03 -23.07708 -43.15539 3504 ft 211 kts 109°
2026-04-29 09:03 -23.07956 -43.13997 3501 ft 208 kts 80°
2026-04-29 09:04 -23.07346 -43.12612 3508 ft 205 kts 46°
2026-04-29 09:04 -23.06115 -43.11820 3212 ft 211 kts 13°
2026-04-29 09:04 -23.04667 -43.11803 2928 ft 207 kts 354°
2026-04-29 09:04 -23.03261 -43.12043 2629 ft 203 kts 352°
2026-04-29 09:05 -23.01877 -43.12297 2314 ft 200 kts 352°
2026-04-29 09:05 -23.00537 -43.12556 1975 ft 191 kts 352°
2026-04-29 09:05 -22.99276 -43.12799 1723 ft 178 kts 353°
2026-04-29 09:05 -22.98086 -43.13024 1453 ft 170 kts 352°
2026-04-29 09:06 -22.96963 -43.13298 1172 ft 160 kts 346°
2026-04-29 09:06 -22.95975 -43.13733 1021 ft 149 kts 334°
2026-04-29 09:06 -22.95111 -43.14340 911 ft 147 kts 324°
2026-04-29 09:06 -22.94326 -43.15057 659 ft 148 kts 317°
2026-04-29 09:07 -22.93611 -43.15830 417 ft 147 kts 320°
2026-04-29 09:07 -22.92678 -43.16196 221 ft 146 kts 356°
2026-04-29 09:07 -22.91654 -43.16248 60 ft 151 kts 357°
2026-04-29 09:07 -22.90681 -43.16308 21 ft 115 kts 357°
2026-04-29 09:08 -22.90448 -43.16330 21 ft 1 kts 276°
2026-04-29 09:08 -22.90485 -43.16365 20 ft 11 kts 240°
2026-04-29 09:08 -22.90498 -43.16468 19 ft 15 kts 267°
2026-04-29 09:08 -22.90511 -43.16549 22 ft 6 kts 216°
2026-04-29 09:09 -22.90553 -43.16557 21 ft 7 kts 180°
2026-04-29 09:09 -22.90620 -43.16553 21 ft 11 kts 176°
2026-04-29 09:09 -22.90707 -43.16548 21 ft 13 kts 177°
2026-04-29 09:09 -22.90795 -43.16545 19 ft 13 kts 182°
2026-04-29 09:10 -22.90882 -43.16547 19 ft 13 kts 177°
2026-04-29 09:10 -22.90978 -43.16540 19 ft 15 kts 176°
2026-04-29 09:10 -22.91090 -43.16531 20 ft 17 kts 171°
2026-04-29 09:10 -22.91190 -43.16518 20 ft 10 kts 182°
2026-04-29 09:11 -22.91206 -43.16542 19 ft 4 kts 264°
2026-04-29 09:11 -22.91208 -43.16573 19 ft 1 kts 269°
2026-04-29 09:11 -22.91208 -43.16574 19 ft 0 kts 269°